Regional Weather Roundup
Issued by NWS

Home | Current Version | Previous Version | Graphics & Text | Print | Product List | Glossary On
Versions: 1 2 3 4 5 6 7 8 9 10 11 12 13 14 15 16 17 18 19 20 21 22 23 24 25 26 27 28 29 30 31 32 33 34 35 36 37 38 39 40 41 42 43 44 45 46 47 48 49 50
000
ASUS43 KOAX 231902
RWRNE

WEATHER ROUNDUP FOR NEBRASKA
NATIONAL WEATHER SERVICE OMAHA NE
200 PM CDT WED AUG 23 2017

NOTES: SATELLITE DATA IS BEING USED TO AUGMENT CLOUD COVER ABOVE
       12000 FEET.
       "FAIR" INDICATES FEW OR NO CLOUDS BELOW 12,000 FEET WITH NO
       SIGNIFICANT WEATHER AND/OR OBSTRUCTIONS TO VISIBILITY.


NEZ001>004-019>022-054>056-232000-
NEBRASKA PANHANDLE

CITY           SKY/WX    TMP DP  RH WIND       PRES   REMARKS
SCOTTSBLUFF    SUNNY     83  59  44 S6        30.07F
ALLIANCE       SUNNY     82  58  43 SE13      30.06F
CHADRON        SUNNY     88  55  32 N5        30.01F
GORDON         FAIR      85  57  37 S9        30.03F
KIMBALL        SUNNY     85  54  34 SE6       30.13F
SIDNEY         SUNNY     85  55  35 SE9       30.11F
$$

NEZ057>060-069>072-079>082-232000-
SOUTHWEST NEBRASKA

CITY           SKY/WX    TMP DP  RH WIND       PRES   REMARKS
NORTH PLATTE   SUNNY     80  56  43 S13G26    30.09F
IMPERIAL       SUNNY     82  58  43 S17G25    30.11F
LEXINGTON      SUNNY     79  50  36 S16       30.12F
MCCOOK         SUNNY     82  52  35 S14       30.12F
OGALLALA       SUNNY     82  61  49 S14       30.09F
$$

NEZ005>010-023>029-035>040-094-232000-
NORTH CENTRAL NEBRASKA

CITY           SKY/WX    TMP DP  RH WIND       PRES   REMARKS
VALENTINE      SUNNY     87  57  35 SW14G22   30.01F
AINSWORTH      SUNNY     81  59  46 S18G25    30.04F
BROKEN BOW     SUNNY     80  51  36 SW16G23   30.10F
O`NEILL        SUNNY     79  55  44 S15G22    30.07F
ORD            SUNNY     78  53  41 S15       30.09F
THEDFORD       SUNNY     83  58  42 S17G25    30.08F
$$

NEZ041-046>049-061>064-073>077-083>087-232000-
SOUTH CENTRAL NEBRASKA

CITY           SKY/WX    TMP DP  RH WIND       PRES   REMARKS
GRAND ISLAND   SUNNY     77  56  48 S12       30.13F
AURORA         SUNNY     76  55  48 S10G17    30.13F
HASTINGS       SUNNY     76  53  44 S9        30.15F
HEBRON         SUNNY     79  53  39 SW5       30.14F
HOLDREGE       SUNNY     76  51  40 S13G18    30.13F
KEARNEY        SUNNY     77  56  48 S16       30.14F
$$

NEZ011>018-030>034-042>045-232000-
NORTHEAST NEBRASKA

CITY           SKY/WX    TMP DP  RH WIND       PRES   REMARKS
NORFOLK        SUNNY     76  58  53 S12       30.09F
ALBION         SUNNY     77  60  56 S12       30.11F
BLAIR          SUNNY     76  56  49 S6        30.13F
COLUMBUS       SUNNY     76  58  53 S12G18    30.13F
FREMONT        SUNNY     76  55  47 S6        30.13F
TEKAMAH        SUNNY     77  56  48 S6        30.12F
WAYNE          SUNNY     76  59  56 S7        30.10F
$$

NEZ050>053-065>068-078-088>093-232000-
SOUTHEAST NEBRASKA

CITY           SKY/WX    TMP DP  RH WIND       PRES   REMARKS
LINCOLN        SUNNY     78  56  46 MISG      30.14F
OMAHA EPPLEY   SUNNY     78  51  38 VRB5      30.13F
BEATRICE       SUNNY     78  54  43 SE6       30.13F
FALLS CITY     SUNNY     78  55  44 E3        30.13F
NEBRASKA CITY  SUNNY     75  55  48 CALM      30.14F
PLATTSMOUTH    SUNNY     76  52  42 CALM      30.14F
$$

NEZ044-045-051>053-067-232000-
OMAHA AREA

CITY           SKY/WX    TMP DP  RH WIND       PRES   REMARKS
OMAHA EPPLEY   SUNNY     78  51  38 VRB5      30.13F
BLAIR          SUNNY     76  56  49 S6        30.13F
FREMONT        SUNNY     76  55  47 S6        30.13F
MILLARD        SUNNY     79  56  45 S6        30.13F
OFFUTT AFB     SUNNY     77  54  43 S6        30.13F
PLATTSMOUTH    SUNNY     76  52  42 CALM      30.14F
WAHOO          FAIR      77  58  51 S6        30.13F
$$



USA.gov is the U.S. government's official web portal to all federal, state and local government web resources and services.